Time,TemperatureF,DewpointF,PressureIn,WindDirection,WindDirectionDegrees,WindSpeedMPH,WindSpeedGustMPH,Humidity,HourlyPrecipIn,Conditions,Clouds,dailyrainin,SoftwareType,DateUTC
2013-04-12 00:22:00,59.0,55.0,29.82,SSE,150,5.0,-999.0,87,0.00,,,-99.99,,2013-04-12 07:22:00,
2013-04-12 00:32:00,59.0,55.0,29.82,SSE,150,5.0,-999.0,87,0.00,,,-99.99,,2013-04-12 07:32:00,
2013-04-12 00:42:00,59.0,55.0,29.82,SSE,150,5.0,-999.0,87,0.00,,,-99.99,,2013-04-12 07:42:00,
2013-04-12 01:22:00,59.0,55.0,29.81,SE,130,9.0,-999.0,86,0.00,,,-99.99,,2013-04-12 08:22:00,
2013-04-12 01:32:00,59.0,55.0,29.81,SE,130,9.0,-999.0,86,0.00,,,-99.99,,2013-04-12 08:32:00,
2013-04-12 01:42:00,59.0,55.0,29.81,SE,130,9.0,-999.0,86,0.00,,,-99.99,,2013-04-12 08:42:00,
2013-04-12 02:22:00,59.0,55.0,29.80,East,100,3.0,-999.0,87,0.00,,,-99.99,,2013-04-12 09:22:00,
2013-04-12 02:32:00,59.0,55.0,29.80,East,100,3.0,-999.0,87,0.00,,,-99.99,,2013-04-12 09:32:00,
2013-04-12 02:43:00,59.0,55.0,29.80,East,100,3.0,-999.0,87,0.00,,,-99.99,,2013-04-12 09:43:00,
2013-04-12 03:23:00,59.0,55.0,29.79,East,100,3.0,-999.0,86,0.00,,,-99.99,,2013-04-12 10:23:00,
2013-04-12 03:33:00,59.0,55.0,29.79,East,100,3.0,-999.0,86,0.00,,,-99.99,,2013-04-12 10:33:00,
2013-04-12 03:42:00,59.0,55.0,29.79,East,100,3.0,-999.0,86,0.00,,,-99.99,,2013-04-12 10:42:00,
2013-04-12 04:22:00,59.0,54.0,29.81,SE,130,2.0,-999.0,83,0.00,,,-99.99,,2013-04-12 11:22:00,
2013-04-12 04:32:00,59.0,54.0,29.81,SE,130,2.0,-999.0,83,0.00,,,-99.99,,2013-04-12 11:32:00,
2013-04-12 04:42:00,59.0,54.0,29.81,SE,130,2.0,-999.0,83,0.00,,,-99.99,,2013-04-12 11:42:00,
2013-04-12 05:22:00,59.0,54.0,29.79,ENE,70,1.0,-999.0,82,0.00,,,-99.99,,2013-04-12 12:22:00,
2013-04-12 05:32:00,59.0,54.0,29.79,ENE,70,1.0,-999.0,82,0.00,,,-99.99,,2013-04-12 12:32:00,
2013-04-12 05:42:00,59.0,54.0,29.79,ENE,70,1.0,-999.0,82,0.00,,,-99.99,,2013-04-12 12:42:00,
2013-04-12 06:22:00,59.0,53.0,29.78,ENE,60,5.0,-999.0,81,0.00,,,-99.99,,2013-04-12 13:22:00,
2013-04-12 06:32:00,59.0,53.0,29.78,ENE,60,5.0,-999.0,81,0.00,,,-99.99,,2013-04-12 13:32:00,
2013-04-12 06:42:00,59.0,53.0,29.78,ENE,60,5.0,-999.0,81,0.00,,,-99.99,,2013-04-12 13:42:00,
2013-04-12 07:22:00,59.0,53.0,29.80,North,0,0.0,-999.0,81,0.00,,,-99.99,,2013-04-12 14:22:00,
2013-04-12 07:32:00,59.0,53.0,29.80,North,0,0.0,-999.0,81,0.00,,,-99.99,,2013-04-12 14:32:00,
2013-04-12 07:42:00,59.0,53.0,29.80,North,0,0.0,-999.0,81,0.00,,,-99.99,,2013-04-12 14:42:00,
2013-04-12 08:22:00,59.0,53.0,29.83,North,0,0.0,-999.0,80,0.00,,,-99.99,,2013-04-12 15:22:00,
2013-04-12 08:33:00,59.0,53.0,29.83,North,0,0.0,-999.0,80,0.00,,,-99.99,,2013-04-12 15:33:00,
2013-04-12 08:43:00,59.0,53.0,29.83,North,0,0.0,-999.0,80,0.00,,,-99.99,,2013-04-12 15:43:00,
2013-04-12 09:23:00,60.0,54.0,29.84,North,0,0.0,-999.0,80,0.00,,,-99.99,,2013-04-12 16:23:00,
2013-04-12 09:33:00,60.0,54.0,29.84,North,0,0.0,-999.0,80,0.00,,,-99.99,,2013-04-12 16:33:00,
2013-04-12 09:42:00,60.0,54.0,29.84,North,0,0.0,-999.0,80,0.00,,,-99.99,,2013-04-12 16:42:00,
2013-04-12 10:22:00,61.0,55.0,29.86,SSW,210,2.0,-999.0,80,0.00,,,-99.99,,2013-04-12 17:22:00,
2013-04-12 10:33:00,61.0,55.0,29.86,SSW,210,2.0,-999.0,80,0.00,,,-99.99,,2013-04-12 17:33:00,
2013-04-12 10:44:00,61.0,55.0,29.86,SSW,210,2.0,-999.0,80,0.00,,,-99.99,,2013-04-12 17:44:00,
2013-04-12 12:26:00,63.0,56.0,29.85,SSW,210,14.0,-999.0,79,0.00,,,-99.99,,2013-04-12 19:26:00,
2013-04-12 12:32:00,63.0,56.0,29.85,SSW,210,14.0,-999.0,79,0.00,,,-99.99,,2013-04-12 19:32:00,
2013-04-12 12:42:00,63.0,56.0,29.85,SSW,210,14.0,-999.0,79,0.00,,,-99.99,,2013-04-12 19:42:00,
2013-04-12 13:22:00,65.0,56.0,29.83,SSW,200,6.0,-999.0,74,0.00,,,-99.99,,2013-04-12 20:22:00,
2013-04-12 13:32:00,65.0,56.0,29.83,SSW,200,6.0,-999.0,74,0.00,,,-99.99,,2013-04-12 20:32:00,
2013-04-12 13:42:00,65.0,56.0,29.83,SSW,200,6.0,-999.0,74,0.00,,,-99.99,,2013-04-12 20:42:00,
2013-04-12 14:22:00,65.0,56.0,29.82,ESE,110,5.0,-999.0,74,0.00,,,-99.99,,2013-04-12 21:22:00,
2013-04-12 14:32:00,65.0,56.0,29.82,ESE,110,5.0,-999.0,74,0.00,,,-99.99,,2013-04-12 21:32:00,
2013-04-12 14:42:00,65.0,56.0,29.82,ESE,110,5.0,-999.0,74,0.00,,,-99.99,,2013-04-12 21:42:00,
2013-04-12 15:22:00,65.0,56.0,29.81,South,190,3.0,-999.0,74,0.00,,,-99.99,,2013-04-12 22:22:00,
2013-04-12 15:32:00,65.0,56.0,29.81,South,190,3.0,-999.0,74,0.00,,,-99.99,,2013-04-12 22:32:00,
2013-04-12 15:42:00,65.0,56.0,29.81,South,190,3.0,-999.0,74,0.00,,,-99.99,,2013-04-12 22:42:00,
2013-04-12 16:22:00,64.0,56.0,29.79,ESE,110,2.0,-999.0,76,0.00,,,-99.99,,2013-04-12 23:22:00,
2013-04-12 16:32:00,64.0,56.0,29.79,ESE,110,2.0,-999.0,76,0.00,,,-99.99,,2013-04-12 23:32:00,
2013-04-12 16:42:00,64.0,56.0,29.79,ESE,110,2.0,-999.0,76,0.00,,,-99.99,,2013-04-12 23:42:00,
2013-04-12 17:22:00,64.0,57.0,29.78,ENE,60,2.0,-999.0,79,0.00,,,-99.99,,2013-04-13 00:22:00,
2013-04-12 17:32:00,64.0,57.0,29.78,ENE,60,2.0,-999.0,79,0.00,,,-99.99,,2013-04-13 00:32:00,
2013-04-12 17:42:00,64.0,57.0,29.78,ENE,60,2.0,-999.0,79,0.00,,,-99.99,,2013-04-13 00:42:00,
2013-04-12 18:22:00,62.0,57.0,29.78,NW,310,3.0,-999.0,83,0.00,,,-99.99,,2013-04-13 01:22:00,
2013-04-12 18:32:00,62.0,57.0,29.78,NW,310,3.0,-999.0,83,0.00,,,-99.99,,2013-04-13 01:32:00,
2013-04-12 18:42:00,62.0,57.0,29.78,NW,310,3.0,-999.0,83,0.00,,,-99.99,,2013-04-13 01:42:00,
2013-04-12 19:22:00,60.0,56.0,29.79,NNW,330,3.0,-999.0,87,0.00,,,-99.99,,2013-04-13 02:22:00,
2013-04-12 19:32:00,60.0,56.0,29.79,NNW,330,3.0,-999.0,87,0.00,,,-99.99,,2013-04-13 02:32:00,
2013-04-12 19:42:00,60.0,56.0,29.79,NNW,330,3.0,-999.0,87,0.00,,,-99.99,,2013-04-13 02:42:00,
2013-04-12 20:22:00,59.0,56.0,29.82,WNW,300,2.0,-999.0,90,0.00,,,-99.99,,2013-04-13 03:22:00,
2013-04-12 20:33:00,59.0,56.0,29.82,WNW,300,2.0,-999.0,90,0.00,,,-99.99,,2013-04-13 03:33:00,
2013-04-12 20:42:00,59.0,56.0,29.82,WNW,300,2.0,-999.0,90,0.00,,,-99.99,,2013-04-13 03:42:00,
2013-04-12 21:23:00,58.0,55.0,29.85,North,0,0.0,-999.0,91,0.00,,,-99.99,,2013-04-13 04:23:00,
2013-04-12 21:33:00,58.0,55.0,29.85,North,0,0.0,-999.0,91,0.00,,,-99.99,,2013-04-13 04:33:00,
2013-04-12 21:42:00,58.0,55.0,29.85,North,0,0.0,-999.0,91,0.00,,,-99.99,,2013-04-13 04:42:00,
2013-04-12 22:22:00,58.0,55.0,29.87,SW,230,3.0,-999.0,91,0.00,,,-99.99,,2013-04-13 05:22:00,
2013-04-12 22:32:00,58.0,55.0,29.87,SW,230,3.0,-999.0,91,0.00,,,-99.99,,2013-04-13 05:32:00,
2013-04-12 22:42:00,58.0,55.0,29.87,SW,230,3.0,-999.0,91,0.00,,,-99.99,,2013-04-13 05:42:00,
2013-04-12 23:23:00,58.0,55.0,29.88,North,0,0.0,-999.0,91,0.00,,,-99.99,,2013-04-13 06:23:00,
2013-04-12 23:34:00,58.0,55.0,29.88,North,0,0.0,-999.0,91,0.00,,,-99.99,,2013-04-13 06:34:00,